Wind_Speed
13 13 12 12 11 11 10 10 9 9 8 8 8 7 6 5 3 2 1 1 1 2 5 3 3 3 3 3 3 3 3 2 1 3 4 4 4 5 6 6 6 5 6 7 8 8 9 9 9 8 9 10 10 10 11 13 14 16 18 20 22 23 22 21 21 22 25 26 25 25 26 28 27 27 28 28 28 27 28 27 27 26 24 23 20 21 22 21
12 12 12 12 11 11 10 9 9 8 8 8 7 6 5 3 1 1 1 2 2 1 2 2 2 3 3 3 3 3 2 2 2 3 3 4 4 5 6 7 7 6 7 7 8 9 9 10 10 10 10 12 13 12 13 14 15 17 19 22 22 22 21 21 21 23 25 26 25 25 25 27 26 25 27 28 27 28 29 25 24 23 22 21 20 21 22 22
11 11 11 11 10 10 9 8 8 8 7 7 6 5 3 2 1 1 1 1 2 2 2 2 3 4 4 3 3 3 3 3 2 2 3 3 4 5 7 7 8 8 7 8 8 9 10 11 11 11 12 13 14 15 15 16 16 17 19 22 21 21 21 21 21 23 24 25 25 24 25 26 25 25 27 28 27 27 26 22 19 21 21 20 20 21 23 22
10 10 10 10 9 8 8 8 7 7 7 6 5 4 3 2 1 1 1 2 2 1 2 3 4 5 4 4 4 4 3 2 2 3 3 3 4 5 7 7 8 8 8 8 8 8 10 11 11 12 12 13 16 16 17 17 17 18 19 20 20 21 21 20 21 22 22 24 24 24 25 25 23 25 26 27 28 24 21 18 18 21 21 21 20 21 22 22
9 9 9 9 8 8 7 8 7 7 7 6 5 4 3 3 3 3 2 2 2 2 2 4 4 4 4 4 5 5 4 2 2 4 4 4 5 5 6 7 7 8 8 7 7 8 9 10 11 12 12 13 15 16 17 17 18 19 18 18 20 21 20 18 19 21 21 23 23 23 24 24 23 23 24 26 26 21 17 17 18 19 20 21 21 22 22 22
8 9 9 9 8 8 8 7 7 7 6 5 5 4 4 4 4 3 3 2 2 2 2 3 4 3 4 5 7 6 4 3 3 4 5 4 4 5 5 7 7 7 8 8 8 9 9 10 10 12 13 13 14 14 16 16 16 18 18 17 17 19 19 19 20 20 21 21 21 22 22 22 22 22 23 23 20 18 18 17 18 18 19 20 21 21 22 21
8 9 9 9 8 8 7 7 6 6 5 5 4 4 4 3 3 2 2 2 1 2 2 3 4 5 6 7 8 6 4 3 3 3 4 4 4 4 4 6 7 7 9 10 9 9 10 10 11 12 12 12 13 13 13 14 16 18 17 16 16 17 18 19 19 18 19 20 20 21 22 21 21 23 23 18 16 20 21 18 18 19 20 21 22 22 22 22
8 8 8 8 8 7 7 6 6 6 5 5 4 4 3 2 2 2 1 1 1 2 3 4 5 6 7 7 6 5 4 3 2 3 3 2 3 3 4 6 6 7 9 11 11 11 11 11 11 12 12 13 13 12 13 14 15 15 16 16 16 17 17 17 17 18 19 19 20 21 21 21 22 24 21 16 17 21 23 22 22 24 24 24 24 24 24 24
9 8 8 8 8 7 6 6 5 5 5 5 4 3 2 2 1 1 0 1 2 4 5 6 6 6 6 5 3 3 3 3 2 2 2 2 3 4 5 7 7 8 10 11 11 12 11 12 12 11 12 12 11 12 13 13 14 14 16 17 16 16 15 15 16 18 19 19 20 21 21 21 21 22 20 18 19 22 24 26 26 27 28 26 26 27 27 29
10 10 9 8 7 6 6 5 5 4 4 4 3 2 2 1 1 1 2 4 5 6 6 5 5 4 4 2 2 2 2 3 2 2 3 3 5 5 7 8 9 10 12 11 11 12 11 11 9 9 10 9 10 11 11 13 14 15 15 15 14 15 15 15 18 19 18 18 20 22 22 20 19 21 20 18 20 25 27 26 25 27 27 26 26 26 27 29
11 10 9 8 7 6 5 5 5 4 4 3 3 3 3 3 4 4 5 6 6 5 4 3 3 2 3 3 3 3 3 3 4 4 5 5 6 7 8 9 10 11 11 10 10 10 9 8 7 8 8 9 11 11 11 14 14 14 15 12 11 13 13 14 16 17 17 19 20 23 22 18 16 17 17 18 20 23 23 20 19 20 21 20 20 21 22 23
11 10 9 8 7 6 6 5 5 5 5 4 4 5 5 6 6 6 6 5 4 3 2 3 3 4 5 4 5 5 4 5 5 6 6 6 7 8 9 9 9 9 8 8 9 8 7 7 8 10 11 11 12 11 12 12 10 13 16 13 10 8 10 14 16 17 19 19 21 25 22 16 15 14 15 18 19 18 17 16 15 15 17 19 22 23 22 22
11 10 9 8 7 7 6 6 6 6 6 6 6 7 7 8 7 6 5 4 3 4 4 5 6 7 7 6 7 7 7 6 6 6 7 7 8 8 8 7 7 8 9 9 10 10 9 8 10 12 12 11 11 11 12 10 9 15 16 12 13 10 10 16 17 18 19 19 21 25 23 17 15 13 15 20 20 17 14 15 18 18 18 22 24 23 22 22
12 11 10 9 8 8 7 7 8 8 9 9 8 8 7 7 6 5 4 5 6 7 7 7 8 8 8 9 9 9 8 8 8 7 8 8 8 8 7 7 7 7 9 10 12 12 10 9 10 11 12 11 10 11 13 10 10 16 13 12 19 19 17 17 17 19 19 19 21 22 21 19 14 11 14 20 21 21 18 19 22 20 19 20 20 19 21 21
13 12 11 10 10 10 10 10 10 10 10 9 8 7 7 6 6 6 7 8 8 8 8 9 10 10 10 11 11 11 10 9 8 8 8 9 10 11 10 8 8 7 8 9 11 12 11 9 10 11 12 11 10 12 11 9 11 16 16 15 19 22 21 19 18 20 20 20 20 21 22 19 12 8 10 15 19 21 23 24 23 20 18 18 16 17 18 20
14 13 13 13 13 13 12 12 11 11 9 8 8 7 7 8 8 8 9 10 10 10 10 11 12 11 11 13 12 11 10 9 9 9 9 11 12 12 12 11 9 8 8 9 9 11 11 11 12 12 12 11 10 12 11 9 15 19 19 20 21 23 24 21 20 21 22 21 18 18 22 19 11 9 9 11 15 19 22 25 23 20 19 20 20 21 21 21
14 15 15 14 14 13 13 12 11 10 9 8 8 8 8 9 10 11 11 12 13 13 13 13 12 12 13 12 11 10 10 11 10 11 11 12 12 12 12 12 10 7 7 8 8 9 11 12 13 12 12 13 14 17 16 14 20 21 20 21 22 23 25 23 21 22 24 23 19 17 17 15 12 13 14 14 17 19 22 25 23 20 20 22 25 26 26 25
16 16 16 15 13 12 12 11 11 10 10 9 9 9 9 10 11 11 13 14 14 14 14 13 10 12 14 11 10 12 13 13 12 11 11 11 10 10 10 11 10 6 4 6 7 7 9 11 12 12 14 18 21 23 20 17 20 20 21 23 23 24 25 24 22 22 24 22 20 19 16 13 13 15 18 18 18 20 22 22 20 19 20 23 26 29 29 27
16 16 15 13 12 11 10 10 11 11 10 10 9 9 11 12 13 15 16 15 15 16 17 15 12 15 16 13 14 15 13 13 12 11 10 10 10 8 9 10 10 6 3 5 8 7 7 10 14 18 21 23 24 23 20 17 17 18 20 22 23 26 26 24 22 23 26 23 20 20 19 15 14 17 19 19 18 19 19 17 15 17 20 23 27 29 28 27
16 16 14 12 11 10 10 11 12 12 12 12 13 15 17 18 19 21 19 18 20 21 20 17 16 17 17 15 15 14 13 12 12 10 8 8 10 10 9 9 10 8 3 5 9 7 8 13 17 22 23 23 23 21 19 18 17 17 20 22 23 26 28 25 22 24 26 27 24 21 23 17 12 16 19 18 18 16 16 15 14 18 22 25 28 29 28 27
18 16 14 14 14 15 17 17 17 18 19 19 20 21 22 22 23 23 20 21 23 22 18 16 15 16 16 16 14 14 14 12 10 10 8 8 10 10 7 6 9 9 5 6 10 8 8 14 20 22 21 22 22 20 20 20 18 19 22 24 24 26 31 26 22 25 24 27 26 22 27 19 8 15 19 17 18 17 17 17 18 23 26 28 29 28 27 27
17 16 16 17 19 21 22 22 22 22 22 22 22 22 23 22 22 21 22 24 24 21 19 17 14 13 13 14 14 15 12 8 7 8 8 8 9 9 8 5 8 10 7 7 10 8 8 15 20 21 22 23 21 20 20 20 20 21 23 26 27 28 33 30 28 29 23 25 26 23 31 25 9 14 18 16 18 18 19 22 24 28 29 28 28 26 25 25
18 18 19 20 21 23 23 23 23 23 23 23 21 22 23 23 23 22 23 25 23 21 20 18 15 13 11 10 10 14 14 10 10 12 11 12 13 13 12 9 10 11 8 7 10 10 11 16 19 21 24 23 21 21 20 20 21 21 24 27 29 31 32 33 35 33 25 23 22 24 35 30 10 13 22 21 18 17 20 26 28 27 25 23 21 19 18 19
20 21 21 22 22 23 24 23 23 23 23 23 23 23 23 23 23 23 24 24 22 21 19 17 16 16 14 11 8 11 17 18 16 17 17 16 16 15 14 13 13 12 9 9 11 13 14 15 17 20 24 24 21 22 22 24 24 22 25 27 30 33 32 33 35 36 32 22 17 26 33 26 10 14 31 28 15 14 18 21 21 16 14 13 12 12 13 15
23 23 23 22 22 23 23 23 23 23 23 23 23 23 22 22 22 22 22 22 21 20 19 17 16 17 18 17 12 10 16 21 22 22 20 19 18 16 16 16 15 14 12 10 11 12 14 16 17 20 25 25 23 25 27 28 29 26 27 28 30 34 34 35 33 34 35 21 20 28 19 17 19 21 34 29 13 10 10 11 13 11 11 11 11 13 15 16
25 23 22 21 21 22 22 21 22 21 20 20 20 20 20 18 16 14 14 17 20 22 21 19 17 18 19 20 18 13 13 21 25 23 20 19 18 16 16 18 18 17 14 11 11 12 15 17 18 20 26 27 26 29 29 29 30 28 28 29 30 34 36 35 30 30 28 20 25 26 6 12 28 28 32 24 9 7 13 15 17 14 12 12 13 16 18 18
22 20 19 19 19 18 18 17 16 15 15 16 16 15 11 6 4 5 6 8 15 22 21 19 17 18 20 21 21 18 16 19 22 22 21 19 18 17 17 19 20 19 17 14 12 13 16 19 20 22 26 29 30 30 29 28 28 28 30 30 31 36 36 32 29 27 24 23 26 19 5 11 22 25 27 17 11 16 20 22 22 16 13 13 14 17 19 20
17 16 15 15 14 15 15 14 12 11 11 10 7 3 1 3 3 4 4 4 10 18 18 18 17 18 21 21 21 22 20 19 21 23 23 20 17 16 17 19 20 22 21 17 14 15 17 21 23 24 28 31 31 29 28 28 27 29 31 30 33 37 34 30 26 22 22 22 19 12 6 8 14 21 23 19 20 23 24 28 26 18 14 15 16 19 20 19
13 12 11 10 10 11 10 9 7 6 5 3 2 2 1 2 4 6 8 6 9 15 16 16 16 16 18 18 19 20 20 20 22 23 22 20 19 17 18 20 21 23 23 21 20 19 17 20 24 25 27 31 30 27 26 27 27 28 29 31 33 32 31 27 19 18 20 14 10 9 6 5 9 16 20 22 23 23 24 26 23 19 17 18 20 21 22 21
10 9 7 6 6 6 4 3 2 3 2 2 3 3 3 3 3 6 7 6 9 14 15 15 16 16 16 16 18 20 20 20 22 21 20 21 21 19 19 20 19 20 21 20 21 21 17 19 24 23 25 31 31 26 24 25 26 26 27 33 35 33 31 21 13 19 16 7 7 10 8 6 5 7 12 16 16 18 23 25 24 23 21 21 24 25 25 24
7 6 5 4 3 3 2 2 3 3 2 2 3 4 5 5 5 6 5 5 9 12 14 16 17 17 17 18 19 21 21 20 21 21 21 22 22 22 23 24 25 24 25 24 23 23 18 18 23 22 23 31 32 28 25 24 26 24 25 33 34 34 31 16 12 15 5 5 13 15 13 10 6 5 7 10 10 14 19 23 26 27 26 26 28 28 29 28
7 7 6 5 4 3 3 4 5 5 4 5 6 6 9 11 11 10 6 3 6 10 14 17 18 18 19 20 22 21 22 23 23 23 26 28 28 29 31 33 34 31 30 29 27 25 20 18 22 21 23 31 33 32 29 28 28 22 24 32 25 19 19 10 8 8 4 11 20 18 17 12 10 11 7 6 10 15 19 22 24 26 28 30 31 33 34 33
12 12 10 10 9 7 7 7 7 7 7 7 7 7 11 14 10 10 9 6 6 9 14 17 19 20 20 22 23 22 22 24 24 24 24 27 29 31 31 32 33 30 28 27 25 27 25 23 25 22 24 31 33 33 33 34 33 21 24 33 18 5 8 7 6 5 7 19 27 22 17 12 9 12 10 10 13 16 19 21 24 27 30 32 35 38 38 38
16 15 14 13 12 12 12 10 10 10 9 10 10 11 17 18 12 12 14 11 10 12 14 15 18 21 22 23 23 23 23 23 24 24 23 24 29 31 30 31 32 30 30 27 21 22 20 21 26 23 24 31 32 29 29 33 30 21 25 29 15 5 5 5 6 5 9 23 34 27 14 10 9 11 14 13 12 15 19 22 26 30 33 36 39 41 43 44
18 17 16 15 14 15 14 14 13 13 14 13 11 15 20 17 13 15 14 11 11 11 12 14 16 18 21 23 23 23 24 23 24 24 23 24 30 34 32 32 33 32 32 28 21 15 12 20 26 22 24 32 32 28 29 31 26 21 26 25 17 16 13 12 15 19 17 16 23 23 18 20 21 20 20 15 13 18 21 24 28 32 37 40 41 45 49 52
19 18 17 16 17 16 15 16 14 14 16 10 8 20 25 18 16 17 15 13 13 11 11 13 15 16 19 21 23 23 23 23 24 24 26 25 26 32 33 31 33 34 31 29 25 15 12 22 27 24 28 34 30 28 29 28 24 23 26 24 23 25 21 17 18 21 16 8 12 19 22 26 23 20 24 22 23 30 30 30 33 35 40 41 43 47 52 57
21 21 20 20 20 19 17 17 14 14 13 6 10 24 27 22 21 20 17 17 16 15 14 14 15 17 18 19 22 23 22 24 25 25 27 25 23 28 32 31 31 33 31 30 27 21 20 28 29 27 31 35 31 30 29 26 24 24 24 25 26 25 22 17 10 8 7 5 10 17 24 31 23 18 27 30 31 35 35 36 39 41 44 46 48 54 59 63
23 23 23 22 21 21 19 16 14 13 6 5 18 27 24 22 22 19 18 17 17 17 17 18 18 18 18 18 19 22 23 25 26 25 26 26 23 25 30 32 32 32 32 30 28 27 26 27 28 29 33 34 32 32 32 30 26 22 21 25 25 20 19 18 11 7 7 6 8 14 23 31 26 22 29 32 33 38 41 44 47 49 53 57 61 65 67 66
22 22 23 22 19 18 19 16 13 11 9 14 24 26 22 22 20 17 18 17 17 18 18 19 18 18 19 19 19 20 22 24 26 25 25 26 25 24 28 32 32 31 31 30 28 29 26 20 23 32 36 34 34 35 35 34 29 24 24 27 28 22 19 23 23 16 9 8 9 9 12 17 20 21 24 25 29 39 46 51 55 60 65 68 69 69 67 61
18 19 23 22 18 17 19 17 11 10 15 22 27 24 22 22 19 18 17 17 17 18 18 18 18 18 19 21 21 20 20 22 24 24 23 26 27 25 28 31 31 30 28 28 28 29 26 18 23 37 41 35 34 34 32 30 27 27 30 31 31 28 24 25 28 24 15 9 6 4 7 16 22 22 21 22 28 40 50 56 61 66 70 70 68 66 61 55
15 19 22 20 19 19 17 13 10 13 20 24 24 23 21 20 18 18 17 17 18 17 18 17 17 18 18 19 22 22 19 19 22 23 23 27 27 25 28 30 30 28 26 28 27 26 27 23 26 39 43 38 36 36 32 27 24 28 31 30 28 26 23 17 16 23 24 18 14 12 12 19 25 23 21 26 36 45 51 60 67 70 70 68 65 62 58 53
15 20 21 18 19 19 14 12 15 19 22 23 22 21 20 19 18 17 17 17 17 16 17 17 16 18 18 17 20 22 21 19 21 22 23 26 25 25 28 29 28 27 26 26 27 27 28 24 26 36 41 39 38 38 36 30 29 31 27 24 23 20 18 13 11 21 29 29 29 23 14 14 19 21 27 39 49 50 51 60 70 71 67 63 60 59 58 55
16 20 20 17 18 16 11 14 19 19 21 22 21 20 19 18 17 16 16 15 15 15 15 15 16 17 17 18 19 22 23 20 20 22 23 24 24 25 26 26 25 24 25 26 27 28 25 20 26 36 43 47 48 46 42 36 35 35 27 25 27 24 24 21 19 22 24 22 23 17 9 12 23 32 43 52 54 51 51 61 68 66 63 61 57 57 58 57
16 20 19 17 17 15 12 16 18 19 22 22 20 19 19 17 16 15 14 13 13 14 13 14 16 16 17 18 19 22 24 22 21 23 24 24 24 24 23 24 23 23 25 26 27 28 24 19 23 25 27 37 43 43 45 44 42 37 31 32 35 36 36 32 27 23 13 16 26 16 9 22 38 47 52 52 51 50 55 65 68 64 63 62 58 57 59 59
14 18 19 19 16 14 16 19 18 19 22 21 19 19 17 16 15 14 13 13 12 12 13 15 15 15 17 18 19 21 23 22 22 23 24 24 22 22 22 21 22 23 24 25 27 30 28 26 24 15 8 13 19 23 34 42 41 35 34 36 37 37 33 29 27 22 13 22 31 20 19 38 53 54 51 50 48 51 62 71 70 66 66 63 61 61 61 60
13 15 19 19 16 15 19 21 18 18 20 18 18 17 15 14 13 12 12 12 12 12 13 14 15 16 17 18 19 20 21 22 22 22 23 22 20 22 21 19 21 23 23 25 28 29 31 33 29 19 15 19 24 29 33 34 32 33 35 36 36 31 26 24 23 21 22 26 26 26 34 49 56 54 50 49 47 56 69 72 69 68 68 66 64 63 61 58
12 14 16 16 16 18 20 20 18 17 17 16 16 15 13 12 12 11 11 11 11 13 13 14 17 17 18 20 21 21 22 21 21 22 22 20 19 20 18 18 21 22 23 26 29 29 33 36 34 30 30 32 36 36 31 27 28 32 33 33 33 27 23 25 24 26 32 23 21 36 49 48 53 55 50 48 50 62 72 71 68 69 66 64 64 62 59 58
12 14 14 14 16 18 19 19 18 16 15 15 15 14 12 11 11 11 11 11 12 14 15 16 18 19 20 22 23 24 25 25 23 23 22 21 21 21 18 18 22 24 25 26 28 30 33 35 38 40 41 41 39 32 27 28 30 30 31 31 27 23 24 28 28 33 39 27 26 45 51 47 52 55 50 50 55 65 71 69 68 66 63 61 61 58 57 57
13 15 16 17 18 18 17 17 16 14 13 13 13 13 11 10 10 10 12 12 13 15 17 18 19 20 20 22 24 25 27 28 27 25 24 23 23 24 22 20 22 25 24 24 28 30 32 36 40 43 47 47 39 31 30 32 31 30 30 25 20 23 28 30 33 40 43 38 40 47 47 48 52 51 51 55 60 66 68 67 66 64 60 59 57 55 55 56
14 15 16 16 17 17 15 15 14 11 11 12 12 11 10 10 11 11 13 14 15 16 18 19 19 20 20 22 24 24 24 24 24 24 24 23 24 24 22 22 25 26 22 23 27 28 31 37 40 43 49 48 42 38 36 35 35 31 24 20 23 29 33 34 38 42 42 43 46 46 46 51 51 49 53 57 61 64 65 64 65 63 60 59 57 54 54 55
15 15 14 12 13 15 14 13 12 9 10 10 10 9 9 11 12 13 14 16 16 16 18 19 18 19 20 21 22 22 22 21 19 19 19 20 22 22 19 21 26 27 26 26 26 26 30 36 40 43 43 45 46 43 37 38 37 28 22 25 29 32 38 40 41 42 43 44 46 46 47 49 49 51 56 59 61 64 64 65 65 62 61 59 55 53 55 60
16 16 14 10 10 13 12 11 10 9 9 9 9 9 10 12 14 14 15 16 16 17 18 18 18 19 20 21 21 21 20 19 19 18 16 17 20 18 12 15 23 25 26 27 27 29 31 35 40 37 35 42 45 41 42 41 26 18 28 32 26 31 42 45 47 48 46 46 50 51 49 48 53 61 63 62 64 67 67 66 64 62 60 56 53 56 60 63
Wind_Direction
168 170 173 174 178 187 192 197 199 201 204 204 206 210 215 218 223 262 329 328 303 223 229 247 279 315 338 330 327 335 327 317 263 271 284 301 323 333 327 324 319 304 287 277 275 275 276 279 280 280 281 281 281 278 274 274 273 272 272 272 275 282 290 297 301 300 301 303 304 305 304 303 306 307 304 300 300 302 298 298 304 302 296 292 289 286 284 282
169 169 170 171 176 183 186 190 193 195 199 200 202 203 211 219 220 273 312 300 288 242 227 247 296 333 343 337 337 336 324 314 265 257 275 301 324 326 322 324 325 319 303 292 286 286 286 286 290 290 288 288 289 287 282 279 278 275 274 277 283 291 297 302 304 305 304 304 305 305 305 305 309 308 302 300 302 301 300 309 312 300 291 290 286 281 280 279
167 166 165 166 169 175 180 185 190 191 193 195 194 198 208 215 238 265 264 262 254 231 245 302 344 353 352 349 352 348 335 319 282 270 287 306 320 323 324 326 327 325 316 307 296 293 293 292 296 295 293 291 290 290 288 287 284 281 281 284 292 298 301 306 308 306 305 304 306 308 307 307 309 306 302 302 302 302 308 315 308 292 286 287 284 279 280 280
159 158 156 156 159 166 173 180 184 183 181 181 180 183 189 194 208 191 188 225 245 272 316 343 350 353 353 354 1 1 353 344 325 325 323 322 331 328 324 325 327 325 320 314 302 296 293 292 294 292 291 291 292 293 292 293 291 288 290 294 302 305 305 311 310 306 306 307 309 310 308 306 307 304 303 302 302 308 313 303 290 286 286 288 284 280 285 291
146 143 143 144 150 157 164 169 170 169 167 167 166 164 165 164 164 168 190 220 252 298 328 343 347 349 349 355 0 359 351 335 322 338 345 345 343 332 325 323 319 318 316 308 302 298 292 291 291 290 293 293 294 296 297 299 296 294 298 303 308 306 309 314 310 308 311 310 311 311 307 307 308 304 302 302 306 315 316 302 295 297 300 299 293 289 294 301
134 132 133 138 146 154 158 159 157 157 155 153 152 151 156 158 161 176 200 224 263 305 333 344 345 344 351 358 358 354 343 325 310 338 356 355 342 329 320 312 308 311 309 305 304 302 297 297 298 298 299 299 300 301 300 300 297 297 301 306 307 306 312 315 313 315 314 312 314 311 308 310 310 306 304 306 314 319 314 312 310 307 307 302 298 299 300 302
132 131 133 138 145 150 152 149 144 142 142 141 142 147 155 162 171 191 217 241 287 327 346 351 350 355 1 0 359 356 352 357 345 343 354 348 328 315 307 303 310 318 314 310 309 306 308 308 307 307 308 309 309 305 300 299 299 300 303 307 309 312 316 317 320 320 313 313 314 309 307 312 311 307 310 319 330 322 311 306 305 302 300 297 296 298 299 297
145 139 138 142 146 149 147 140 136 134 136 136 140 150 163 176 192 214 241 276 335 7 14 11 5 6 3 359 3 4 8 20 7 346 346 324 306 302 308 312 318 327 321 317 317 318 320 318 316 317 315 315 313 308 304 303 303 305 310 316 320 321 320 321 323 317 311 313 314 310 310 314 313 311 317 331 332 318 306 300 300 297 292 289 289 289 290 288
156 150 147 148 148 148 143 137 134 132 131 133 142 152 162 181 203 231 268 23 36 36 30 19 11 9 3 359 6 8 10 11 359 345 322 303 314 324 331 329 331 337 332 331 332 331 328 324 323 324 321 319 318 315 313 314 317 320 324 328 327 321 318 318 316 314 315 318 317 317 319 322 319 315 319 325 315 303 297 299 299 295 289 285 281 280 281 281
155 154 153 151 150 146 141 136 130 124 120 117 122 127 126 122 81 66 60 51 48 39 29 19 16 14 9 10 11 20 20 6 5 356 343 341 344 348 349 344 345 347 343 343 342 336 329 324 328 332 329 328 330 330 333 337 336 333 336 335 326 321 321 316 314 318 321 323 320 321 326 330 325 321 320 311 297 293 296 301 300 295 291 289 288 287 287 287
148 149 148 146 145 142 137 129 119 110 100 95 93 92 83 77 73 70 63 55 50 40 31 30 28 31 43 47 47 55 41 19 16 5 2 358 355 0 359 354 357 354 349 349 347 341 337 337 350 355 350 350 349 350 354 349 343 339 338 334 325 324 323 314 314 320 321 323 322 321 330 336 330 331 326 310 302 306 313 317 311 305 307 312 317 319 314 309
141 141 140 140 138 135 129 118 109 101 95 91 83 79 80 79 75 70 62 52 49 46 60 67 60 60 60 57 55 54 43 29 21 12 10 6 5 9 3 3 7 5 7 12 9 7 11 16 17 10 4 1 357 358 352 344 344 343 336 331 334 333 326 322 321 326 327 330 328 326 336 345 341 346 333 324 330 337 341 341 336 334 336 342 343 341 336 327
138 137 136 134 128 123 117 109 104 99 95 91 87 89 89 85 77 67 56 48 58 67 74 75 72 71 66 59 54 49 42 32 24 19 20 22 20 16 14 19 22 27 37 35 27 25 26 23 16 9 1 355 355 355 347 336 330 336 336 336 344 352 348 337 330 334 339 339 335 332 341 348 346 348 333 332 347 352 352 348 346 348 342 341 342 340 338 332
134 132 129 124 119 114 110 106 103 101 101 100 97 95 90 84 76 69 66 67 69 70 76 81 81 77 65 56 51 47 43 34 29 27 29 31 28 27 32 33 33 44 46 35 27 22 15 9 9 6 356 351 355 349 341 331 322 334 345 348 349 354 0 353 340 346 352 346 342 338 341 347 347 343 325 329 344 350 353 354 352 351 342 341 344 341 342 344
130 127 123 118 115 113 112 112 111 110 108 105 102 97 87 80 78 81 79 74 73 74 82 85 81 76 68 60 51 44 41 37 34 34 36 34 30 32 32 27 25 32 32 23 17 11 5 5 5 1 355 353 350 341 334 328 331 347 358 358 356 357 3 5 352 351 357 354 352 342 340 348 350 334 315 319 333 340 346 353 353 350 348 352 355 350 350 353
127 125 121 119 119 119 119 118 116 112 110 107 104 100 95 92 92 87 79 79 83 84 88 88 81 77 72 63 53 47 48 46 46 45 41 34 29 26 20 15 10 7 9 4 359 359 3 10 7 2 2 360 354 351 350 348 356 5 7 1 360 358 360 5 358 352 355 357 359 347 340 347 347 326 311 311 319 326 334 343 348 350 355 359 357 354 352 350
126 125 124 124 123 121 120 117 114 112 110 109 106 105 105 103 100 95 93 94 93 89 88 85 84 83 75 66 58 56 52 45 43 40 34 29 25 19 12 6 355 351 358 354 347 352 7 15 10 10 13 11 9 9 12 7 5 9 8 1 360 358 357 358 358 354 352 353 354 349 343 343 339 329 321 316 316 320 324 329 336 343 350 352 350 350 350 351
128 128 126 124 120 117 116 114 114 114 111 108 104 105 108 108 108 107 105 100 95 93 86 79 83 80 71 65 58 52 46 38 33 30 28 23 17 12 9 3 352 342 344 351 342 344 10 11 8 21 23 17 15 16 20 13 2 2 2 359 356 356 356 354 353 350 348 352 350 345 346 340 330 330 330 326 321 322 325 326 332 337 339 342 344 344 347 352
127 124 119 114 110 111 113 116 119 115 109 110 112 117 118 117 114 107 103 101 98 91 80 73 73 70 63 55 46 42 39 34 27 20 17 13 8 3 1 4 5 355 318 333 332 337 6 358 6 23 20 16 15 15 17 9 2 2 358 357 353 350 354 355 350 345 341 346 349 342 343 341 327 331 336 337 335 331 329 327 331 334 335 340 343 345 348 353
116 112 108 105 105 107 109 116 117 110 111 115 121 123 119 116 111 104 102 99 90 80 74 70 65 62 59 50 44 37 31 30 21 9 5 5 6 1 353 359 10 9 332 327 336 344 357 354 11 22 16 12 12 10 9 4 2 2 355 356 355 347 350 354 350 345 337 337 345 338 338 344 331 332 339 342 346 341 332 332 337 340 343 348 350 350 354 356
114 111 111 111 112 113 114 116 115 115 115 114 115 114 111 109 104 100 97 87 77 70 66 61 55 56 55 50 47 37 25 18 10 2 356 357 360 0 3 360 0 6 2 354 359 359 352 2 18 20 12 9 10 8 5 1 358 358 355 353 353 348 346 350 350 345 334 328 335 332 332 341 338 340 341 338 346 347 340 345 353 353 353 355 354 352 355 356
116 118 121 121 119 119 118 117 118 117 114 111 111 110 109 106 100 96 89 79 71 65 58 50 44 42 44 46 46 38 22 4 6 10 13 21 22 26 35 22 0 9 18 11 9 5 0 13 21 16 9 9 8 6 3 1 357 356 357 352 352 351 345 345 346 343 334 323 328 329 330 334 349 0 352 343 347 349 349 358 3 358 356 356 355 354 353 352
125 128 128 126 123 121 119 117 116 113 112 114 115 114 109 103 97 91 83 76 70 65 58 50 44 36 32 39 43 39 32 32 36 38 46 49 46 46 42 30 15 19 32 29 19 18 17 18 18 13 11 9 6 5 3 4 3 357 357 353 350 351 345 339 339 340 335 323 325 331 329 330 348 18 3 356 352 349 1 9 5 355 350 350 350 347 341 335
131 130 128 125 122 121 119 118 116 116 118 119 117 112 106 99 93 86 79 75 67 61 54 47 47 42 39 43 44 37 34 35 39 42 50 49 45 45 39 34 31 33 40 35 27 25 22 18 15 13 12 9 5 4 2 5 6 0 358 354 349 350 345 335 332 335 334 326 329 334 331 329 332 6 360 0 11 9 11 12 2 345 326 323 321 314 308 305
127 124 122 120 121 122 120 119 120 120 121 119 114 107 101 95 90 83 77 69 58 54 50 43 44 43 41 41 43 42 32 32 37 40 43 43 42 41 36 35 34 36 38 33 29 23 19 17 15 15 14 11 8 5 4 4 1 358 356 352 349 346 343 336 331 331 330 327 334 336 336 326 323 348 357 1 35 34 356 339 335 324 296 288 290 292 294 293
120 119 117 118 122 122 122 123 123 122 122 119 114 108 103 97 89 76 63 55 43 39 40 38 39 39 37 38 40 44 34 32 36 38 39 40 39 37 34 34 32 34 34 26 24 19 17 18 16 17 16 12 10 7 7 1 355 355 351 347 347 343 339 336 330 327 323 318 328 330 318 304 320 345 355 354 14 339 313 317 322 315 295 288 293 298 302 304
119 119 120 123 125 125 126 128 126 126 128 124 119 114 105 81 47 13 17 40 29 25 27 29 35 36 35 38 40 44 41 34 36 39 40 39 36 33 30 30 30 32 29 22 20 18 16 16 14 16 15 12 10 7 4 359 351 349 348 344 344 340 337 336 330 326 316 312 322 322 293 291 312 342 347 328 311 312 320 334 334 321 296 289 302 309 313 316
123 124 127 129 132 131 132 134 134 136 138 137 137 145 279 326 344 3 48 66 16 14 17 22 31 32 32 38 40 45 47 40 37 39 39 37 33 31 29 27 28 27 26 23 15 10 11 13 12 11 12 13 11 6 360 356 349 345 346 344 340 338 337 336 333 326 316 315 321 316 308 297 306 335 330 300 298 312 328 339 337 329 309 302 309 311 314 318
127 130 132 134 137 135 132 134 140 144 151 160 157 168 170 98 86 75 81 75 20 17 22 25 34 34 35 42 43 46 49 45 42 39 36 34 28 29 29 27 28 26 24 23 13 7 7 10 9 5 7 9 9 6 359 354 347 342 343 341 337 337 337 338 337 328 317 305 305 309 311 311 315 328 316 300 306 316 327 333 333 332 323 318 321 319 318 315
129 132 131 132 136 135 133 132 140 142 135 123 122 137 147 134 109 76 73 61 28 28 33 37 43 46 46 47 45 46 46 44 43 39 34 32 26 24 26 25 27 25 22 24 19 14 12 12 8 3 1 2 4 5 359 353 347 341 341 339 339 342 342 341 335 329 320 283 299 309 303 308 311 326 332 332 334 329 324 322 321 323 320 319 325 330 332 327
124 121 117 115 110 120 137 143 151 146 126 109 121 115 97 97 94 80 79 61 35 32 41 47 48 51 48 45 44 41 39 38 37 32 28 26 19 15 20 19 17 16 15 18 22 21 22 17 9 5 2 358 357 359 358 356 350 343 341 342 343 346 346 341 332 334 315 266 314 309 302 308 260 262 354 9 351 337 336 332 325 322 324 326 329 334 338 337
101 93 88 87 90 106 127 139 144 126 107 102 108 103 85 80 72 70 86 81 37 35 48 52 49 48 44 41 40 35 33 33 28 26 24 22 18 18 22 20 15 13 9 8 15 18 22 21 12 10 6 0 354 352 354 357 355 346 343 348 350 347 345 340 330 332 244 288 315 311 306 304 245 248 299 337 333 345 353 348 337 330 330 332 334 338 339 338
91 89 90 92 95 101 105 116 121 111 101 91 92 92 85 83 70 63 78 86 64 52 52 51 46 44 41 38 37 32 31 31 27 26 25 23 23 24 26 22 18 16 7 2 7 10 13 15 11 8 6 4 358 351 349 350 352 350 348 351 354 353 345 330 309 313 291 303 311 310 305 292 247 241 257 288 321 344 349 347 347 341 336 335 338 339 337 335
90 89 88 87 87 87 88 93 101 102 93 85 92 94 85 82 76 74 81 83 77 65 55 50 44 42 39 35 35 31 29 30 27 25 23 22 25 26 24 20 17 13 7 4 4 9 9 2 2 3 360 359 359 357 349 345 349 350 347 347 345 341 331 287 282 292 294 303 306 306 301 288 279 253 247 270 310 332 338 341 344 344 342 341 338 336 335 334
88 86 85 84 81 81 81 83 91 93 87 85 88 85 82 81 80 77 76 73 72 64 54 51 46 44 42 37 34 31 29 28 24 23 22 22 24 24 20 17 14 8 6 3 359 4 357 348 358 4 356 354 356 358 352 347 349 347 343 341 333 328 311 279 283 281 277 293 300 296 290 290 291 275 261 263 289 308 316 322 330 338 340 339 336 336 337 337
86 84 83 81 78 79 78 78 79 76 76 77 79 80 82 86 86 79 73 70 67 59 53 48 43 43 43 38 35 32 28 25 22 22 22 21 22 21 16 14 11 6 3 0 356 354 335 339 355 4 357 356 355 354 353 350 347 341 340 338 329 326 317 295 287 284 281 278 279 281 287 292 289 276 269 264 273 289 300 311 323 332 334 334 334 336 337 337
83 80 78 78 78 76 73 70 63 62 66 65 80 85 87 87 86 83 78 72 65 59 56 49 43 40 37 34 33 29 26 25 22 20 20 18 16 15 14 10 8 4 1 358 355 349 332 332 347 358 356 356 356 351 351 352 347 338 337 337 330 324 318 304 285 290 299 268 270 281 288 291 287 278 282 286 295 305 315 325 330 333 333 334 335 336 338 337
79 77 75 74 74 73 68 59 53 61 80 99 87 88 90 88 85 83 76 70 65 60 56 53 49 41 35 30 27 25 24 23 20 18 17 14 10 9 10 7 3 1 359 357 352 348 338 330 337 349 350 352 356 352 348 352 351 340 332 334 330 319 312 309 300 302 305 280 277 280 283 289 286 284 294 306 321 329 333 336 337 337 337 337 337 338 339 339
77 77 73 66 65 71 70 62 62 81 101 95 90 90 91 89 86 81 75 69 66 60 56 56 50 43 39 31 24 21 21 20 17 15 13 9 6 4 4 3 360 358 356 354 351 347 343 328 324 339 345 346 353 354 348 347 348 343 335 332 329 317 306 305 300 293 286 280 288 284 280 285 284 290 302 315 330 337 339 340 341 342 341 341 340 339 339 338
78 78 75 68 64 68 73 75 78 88 84 82 89 93 91 90 86 79 74 67 64 62 58 55 47 42 38 30 26 20 16 16 13 11 9 5 2 0 360 358 355 355 353 352 351 346 344 329 315 333 343 345 350 352 347 341 341 340 335 330 329 323 315 307 299 298 298 286 291 304 285 289 292 293 296 308 327 336 340 341 341 340 340 340 339 337 337 338
75 73 74 73 68 66 76 88 76 68 77 83 89 91 90 89 84 78 74 67 64 61 55 51 43 39 32 25 24 17 12 12 8 7 6 1 0 358 355 353 351 354 353 350 352 348 343 331 318 331 339 340 344 348 348 345 340 338 335 331 329 325 322 316 299 303 307 298 297 301 291 295 296 289 293 315 329 334 337 341 340 339 339 338 337 337 339 340
71 71 71 69 70 69 73 84 73 70 82 88 88 90 89 87 83 78 73 67 62 56 50 44 36 32 26 19 17 13 11 9 6 6 2 358 358 353 350 351 350 352 352 350 351 348 344 335 326 331 334 336 342 348 350 347 340 340 338 330 324 320 322 320 299 305 305 298 298 298 295 301 296 298 315 326 328 327 330 338 340 338 337 336 336 338 340 341
73 73 73 70 74 77 71 75 79 82 88 88 88 89 87 83 81 75 69 64 57 49 42 35 28 25 20 15 12 9 8 6 5 3 359 356 356 352 350 350 350 351 351 350 348 346 346 340 332 333 336 339 343 347 348 345 342 340 334 322 319 318 319 314 313 318 307 303 318 316 296 306 310 318 323 322 320 318 323 334 337 335 334 335 335 336 338 339
76 76 76 71 72 80 79 78 84 88 89 89 89 88 84 80 77 72 66 59 51 43 35 26 21 18 14 11 7 6 4 3 2 359 357 356 353 353 352 351 353 353 349 347 345 343 343 340 334 333 337 340 342 345 344 340 339 334 323 316 314 314 316 316 328 342 326 324 340 332 285 307 320 325 324 316 314 319 327 333 335 333 334 334 333 333 335 336
74 77 78 74 71 78 83 82 81 83 87 90 88 84 82 78 72 67 60 51 41 33 25 20 17 12 10 6 2 2 2 360 358 356 355 353 352 354 352 351 354 352 349 346 341 339 339 336 336 335 324 326 328 328 328 327 327 323 316 313 311 314 322 331 347 1 349 329 328 314 297 314 326 332 325 315 317 326 332 333 333 333 333 332 332 333 334 334
68 78 83 83 78 75 81 83 79 78 83 87 84 81 77 69 64 58 49 39 30 23 17 15 12 6 4 1 359 1 1 358 356 354 353 351 352 354 350 351 353 352 351 347 340 339 336 334 338 335 319 316 314 314 320 322 317 313 311 310 311 315 326 343 360 4 345 326 312 314 319 320 328 332 320 313 323 330 332 332 331 332 331 329 330 331 330 331
70 80 87 90 87 80 80 82 79 76 78 78 77 76 70 60 52 43 35 26 19 14 9 7 6 2 359 359 359 360 359 358 357 354 352 350 352 354 350 349 354 356 354 347 342 340 335 335 340 335 325 324 323 323 329 328 316 312 311 309 310 314 326 345 359 359 349 330 304 326 333 325 327 329 314 310 324 329 329 330 329 328 328 327 328 329 328 330
73 83 87 89 91 89 85 83 79 73 70 69 69 69 63 51 42 33 24 14 7 6 5 4 3 1 359 359 359 358 356 355 356 355 353 350 351 354 352 352 357 359 354 347 343 340 336 336 337 333 327 327 329 332 336 331 321 315 310 307 310 320 335 347 354 353 350 337 320 332 335 327 328 328 317 314 322 325 326 327 326 326 326 327 328 328 330 332
72 80 86 87 88 88 84 82 80 71 61 60 62 61 52 38 29 20 14 9 3 3 4 2 1 0 0 360 359 358 355 352 352 352 351 350 350 351 349 353 358 356 351 347 344 341 338 336 335 332 328 329 336 342 338 332 324 315 309 306 310 318 328 340 348 349 348 340 333 334 330 326 330 328 321 319 320 322 324 324 324 326 326 328 329 330 331 332
73 75 80 81 81 83 80 78 77 66 51 50 53 52 42 27 19 11 9 7 3 2 2 1 1 1 359 359 358 358 356 351 347 347 345 345 348 349 346 349 353 351 348 346 344 342 339 335 335 334 329 330 341 343 338 335 328 317 308 304 310 320 328 338 346 349 346 338 334 333 326 324 327 325 321 319 320 323 325 325 326 327 328 331 332 332 332 331
69 70 71 64 68 76 74 70 69 56 41 42 42 38 29 20 13 7 5 4 1 1 0 359 360 359 358 359 357 356 355 351 347 345 341 341 346 347 343 345 349 349 348 347 343 341 338 334 337 339 329 328 339 341 339 337 327 316 316 318 324 338 343 343 346 348 346 338 332 329 323 322 325 324 320 319 323 328 328 327 328 329 329 331 333 334 331 327
64 64 60 42 51 71 68 59 56 42 34 34 28 26 22 13 8 3 2 1 358 357 359 358 357 357 357 357 356 355 354 351 349 346 343 344 348 347 342 342 347 347 345 345 341 340 340 337 340 341 326 324 336 340 335 334 329 325 329 324 328 345 345 341 342 344 343 338 331 325 321 322 324 323 320 321 325 329 329 328 329 329 330 332 332 330 326 324
Height
3117 3118 3119 3121 3122 3123 3124 3125 3126 3126 3127 3127 3127 3128 3128 3129 3129 3129 3130 3130 3130 3131 3131 3131 3130 3130 3129 3128 3127 3127 3126 3126 3126 3126 3126 3125 3125 3124 3124 3123 3123 3123 3122 3122 3121 3121 3120 3120 3120 3120 3119 3119 3118 3118 3118 3117 3117 3116 3115 3113 3112 3111 3110 3110 3108 3106 3104 3103 3103 3101 3099 3097 3097 3096 3094 3092 3091 3090 3088 3087 3085 3083 3082 3080 3079 3078 3076 3076
3118 3119 3120 3121 3122 3123 3124 3125 3125 3126 3126 3127 3127 3127 3128 3128 3129 3129 3129 3130 3130 3130 3130 3130 3130 3129 3128 3128 3127 3127 3126 3126 3126 3126 3125 3125 3124 3124 3124 3123 3123 3122 3122 3121 3121 3120 3120 3119 3119 3119 3119 3118 3117 3117 3117 3116 3116 3115 3113 3112 3111 3110 3109 3108 3107 3105 3103 3101 3100 3100 3098 3096 3095 3094 3091 3089 3088 3086 3084 3084 3082 3079 3079 3077 3076 3075 3073 3072
3118 3119 3120 3121 3122 3123 3124 3124 3125 3125 3126 3126 3127 3127 3127 3128 3128 3129 3129 3129 3129 3130 3130 3130 3129 3129 3128 3127 3127 3127 3126 3126 3126 3126 3125 3125 3124 3124 3124 3123 3123 3122 3121 3121 3120 3120 3120 3119 3119 3118 3118 3117 3117 3116 3116 3115 3114 3113 3112 3110 3110 3109 3108 3107 3106 3104 3102 3100 3099 3098 3096 3095 3094 3091 3089 3086 3085 3084 3082 3081 3078 3076 3075 3074 3073 3072 3070 3069
3118 3119 3120 3121 3122 3123 3123 3124 3124 3125 3125 3126 3126 3127 3127 3127 3128 3129 3129 3129 3129 3129 3129 3129 3129 3128 3128 3127 3127 3126 3126 3126 3126 3125 3125 3125 3125 3124 3124 3123 3123 3122 3122 3121 3120 3120 3119 3119 3118 3118 3118 3117 3116 3115 3115 3114 3113 3112 3111 3109 3108 3107 3106 3105 3104 3102 3100 3098 3097 3095 3093 3092 3092 3089 3087 3084 3082 3081 3080 3078 3075 3073 3072 3072 3071 3069 3067 3066
3119 3119 3120 3121 3121 3122 3123 3124 3124 3125 3125 3126 3126 3126 3127 3127 3128 3129 3129 3128 3129 3129 3129 3129 3128 3128 3128 3127 3126 3126 3126 3125 3125 3125 3125 3125 3124 3124 3124 3123 3122 3122 3121 3121 3120 3119 3119 3118 3118 3117 3117 3116 3115 3114 3113 3113 3111 3110 3109 3109 3107 3105 3104 3104 3102 3100 3098 3096 3095 3093 3091 3090 3089 3087 3084 3082 3080 3079 3078 3075 3074 3072 3071 3070 3068 3067 3066 3065
3119 3119 3120 3121 3122 3122 3123 3124 3124 3125 3125 3125 3126 3126 3127 3127 3128 3128 3128 3128 3128 3128 3128 3128 3128 3128 3127 3126 3126 3126 3125 3125 3125 3126 3125 3125 3124 3124 3123 3123 3122 3121 3121 3120 3119 3118 3118 3117 3117 3116 3116 3115 3114 3113 3112 3111 3110 3108 3108 3107 3106 3104 3103 3102 3100 3098 3096 3095 3093 3092 3090 3088 3087 3085 3082 3081 3079 3077 3075 3073 3072 3071 3070 3068 3066 3065 3064 3064
3119 3119 3120 3121 3122 3122 3123 3123 3124 3124 3125 3125 3126 3126 3127 3127 3127 3128 3128 3128 3128 3128 3128 3128 3128 3128 3127 3126 3126 3126 3125 3125 3125 3125 3125 3124 3124 3123 3123 3122 3122 3121 3120 3119 3119 3118 3117 3116 3116 3115 3114 3114 3113 3112 3111 3110 3109 3107 3106 3106 3105 3103 3101 3100 3099 3097 3095 3094 3092 3090 3088 3086 3084 3082 3080 3079 3077 3075 3072 3071 3069 3068 3067 3065 3064 3062 3061 3061
3119 3120 3120 3121 3122 3122 3123 3123 3124 3124 3125 3125 3126 3126 3127 3127 3127 3128 3128 3128 3128 3129 3129 3129 3128 3127 3127 3126 3126 3126 3126 3125 3125 3125 3124 3124 3123 3123 3122 3122 3121 3120 3120 3119 3118 3117 3116 3115 3115 3114 3113 3113 3112 3111 3110 3109 3108 3106 3105 3104 3103 3102 3100 3099 3097 3096 3094 3093 3091 3089 3087 3085 3083 3080 3078 3077 3075 3072 3069 3068 3067 3065 3064 3063 3061 3059 3058 3057
3119 3120 3120 3121 3122 3122 3123 3123 3124 3124 3125 3126 3126 3126 3127 3127 3127 3128 3128 3128 3129 3129 3129 3129 3128 3127 3127 3126 3126 3126 3126 3125 3125 3124 3124 3123 3123 3122 3121 3121 3120 3119 3119 3118 3117 3116 3115 3114 3114 3113 3112 3112 3111 3110 3109 3108 3107 3105 3104 3103 3102 3101 3099 3098 3097 3095 3094 3092 3090 3087 3085 3084 3081 3078 3076 3075 3071 3068 3066 3065 3064 3061 3059 3058 3057 3055 3054 3052
3119 3120 3121 3121 3122 3122 3123 3124 3124 3125 3125 3126 3126 3127 3127 3127 3128 3128 3129 3129 3129 3129 3129 3128 3128 3127 3127 3126 3126 3125 3125 3125 3124 3124 3123 3123 3122 3122 3121 3120 3119 3119 3118 3117 3116 3116 3115 3114 3114 3113 3112 3111 3110 3109 3108 3107 3105 3104 3103 3102 3101 3100 3099 3097 3095 3094 3092 3090 3088 3085 3083 3081 3079 3076 3073 3072 3068 3065 3064 3063 3061 3058 3056 3055 3053 3052 3051 3049
3120 3120 3121 3122 3123 3123 3124 3124 3125 3126 3126 3126 3127 3127 3127 3128 3128 3129 3129 3129 3129 3129 3128 3128 3127 3127 3127 3126 3126 3125 3125 3125 3124 3124 3123 3123 3122 3121 3120 3120 3119 3119 3118 3117 3117 3116 3115 3114 3114 3113 3112 3111 3110 3108 3107 3106 3105 3103 3103 3102 3101 3099 3098 3096 3094 3093 3091 3088 3086 3083 3081 3079 3077 3075 3071 3068 3066 3064 3062 3061 3059 3056 3054 3053 3052 3051 3050 3048
3120 3121 3122 3123 3123 3124 3125 3125 3126 3126 3127 3127 3127 3128 3128 3128 3129 3129 3129 3129 3129 3128 3128 3128 3127 3127 3127 3127 3126 3126 3125 3125 3124 3124 3123 3123 3122 3121 3121 3120 3120 3119 3119 3118 3117 3116 3115 3115 3114 3112 3111 3110 3109 3108 3107 3106 3105 3104 3102 3101 3101 3100 3097 3094 3092 3091 3089 3086 3083 3080 3079 3077 3075 3073 3069 3066 3065 3064 3062 3059 3058 3056 3054 3053 3052 3051 3049 3046
3121 3122 3123 3123 3124 3125 3125 3126 3126 3127 3127 3128 3128 3128 3129 3129 3129 3129 3129 3129 3129 3128 3128 3128 3128 3128 3127 3127 3126 3126 3125 3125 3125 3124 3124 3123 3123 3122 3122 3121 3121 3120 3119 3118 3118 3116 3115 3114 3113 3112 3111 3110 3109 3108 3107 3106 3105 3104 3102 3100 3099 3098 3096 3093 3090 3089 3087 3085 3081 3078 3076 3075 3073 3071 3067 3064 3064 3063 3061 3059 3057 3056 3055 3054 3052 3050 3048 3046
3121 3122 3123 3124 3125 3125 3126 3126 3127 3127 3128 3128 3129 3129 3129 3129 3130 3130 3130 3129 3129 3129 3129 3129 3129 3128 3128 3127 3127 3126 3126 3126 3126 3125 3125 3124 3124 3123 3122 3122 3121 3121 3120 3119 3118 3117 3116 3115 3114 3113 3112 3111 3110 3108 3107 3106 3105 3103 3101 3099 3096 3094 3093 3091 3089 3087 3086 3083 3080 3077 3075 3072 3071 3070 3067 3063 3061 3060 3059 3058 3057 3056 3055 3053 3052 3050 3048 3046
3122 3123 3124 3125 3125 3126 3126 3127 3127 3128 3128 3129 3129 3130 3130 3130 3130 3130 3130 3130 3130 3130 3130 3130 3129 3129 3129 3128 3128 3128 3128 3127 3127 3127 3126 3125 3124 3123 3123 3123 3122 3121 3120 3119 3118 3117 3117 3115 3114 3114 3112 3111 3110 3108 3107 3105 3104 3102 3099 3097 3095 3093 3091 3089 3087 3085 3083 3081 3078 3076 3073 3071 3069 3068 3067 3064 3061 3059 3058 3057 3056 3054 3053 3052 3051 3050 3048 3046
3122 3124 3124 3125 3126 3126 3127 3127 3128 3129 3129 3130 3130 3130 3131 3131 3131 3131 3131 3131 3131 3131 3131 3131 3130 3130 3130 3130 3130 3130 3129 3129 3128 3128 3127 3127 3126 3125 3124 3124 3123 3122 3121 3120 3119 3118 3117 3116 3115 3114 3112 3111 3110 3108 3106 3104 3102 3100 3097 3095 3093 3092 3089 3087 3085 3083 3081 3080 3078 3075 3072 3069 3068 3067 3066 3064 3061 3060 3058 3056 3055 3053 3052 3051 3050 3048 3047 3046
3123 3124 3125 3126 3126 3127 3128 3128 3129 3130 3130 3131 3131 3131 3132 3132 3132 3133 3133 3133 3133 3132 3132 3132 3132 3131 3131 3131 3132 3131 3131 3130 3130 3129 3128 3128 3127 3126 3125 3124 3124 3123 3122 3121 3120 3119 3118 3117 3115 3114 3112 3111 3109 3106 3103 3102 3099 3097 3096 3095 3092 3090 3088 3086 3084 3082 3080 3078 3076 3075 3072 3069 3067 3065 3064 3063 3061 3060 3058 3056 3054 3052 3051 3050 3048 3047 3045 3044
3124 3125 3126 3127 3128 3128 3129 3130 3130 3131 3131 3132 3132 3133 3133 3134 3134 3134 3134 3134 3134 3134 3133 3134 3133 3132 3132 3133 3133 3133 3132 3131 3130 3130 3129 3129 3128 3127 3127 3125 3124 3123 3122 3121 3120 3119 3118 3117 3116 3114 3112 3109 3106 3103 3101 3100 3098 3096 3095 3093 3091 3090 3088 3085 3083 3081 3079 3077 3075 3073 3071 3069 3067 3065 3063 3061 3060 3058 3057 3055 3053 3052 3051 3049 3047 3045 3044 3042
3126 3127 3128 3128 3129 3130 3130 3131 3132 3132 3132 3133 3134 3134 3135 3135 3136 3136 3136 3136 3135 3134 3134 3135 3135 3134 3134 3135 3134 3134 3133 3132 3132 3131 3130 3130 3129 3128 3127 3126 3124 3123 3122 3121 3120 3120 3118 3117 3115 3112 3109 3107 3104 3102 3101 3101 3099 3097 3095 3093 3091 3089 3087 3085 3082 3080 3077 3075 3074 3071 3069 3067 3065 3063 3062 3060 3059 3057 3056 3054 3053 3052 3050 3049 3047 3045 3043 3042
3128 3129 3130 3130 3131 3131 3132 3133 3133 3134 3134 3135 3135 3136 3136 3137 3137 3137 3137 3137 3136 3135 3136 3137 3137 3136 3136 3136 3135 3135 3135 3134 3133 3132 3132 3131 3130 3128 3127 3126 3125 3123 3122 3122 3120 3119 3117 3116 3114 3110 3108 3107 3105 3103 3102 3101 3100 3098 3096 3094 3092 3089 3086 3085 3083 3079 3075 3072 3071 3069 3067 3066 3064 3062 3061 3059 3058 3057 3055 3054 3053 3052 3050 3049 3047 3045 3044 3042
3130 3130 3131 3132 3132 3133 3133 3134 3135 3135 3136 3137 3137 3137 3138 3138 3138 3138 3139 3138 3137 3138 3139 3139 3138 3138 3138 3138 3137 3137 3136 3135 3135 3134 3133 3131 3130 3128 3127 3126 3125 3123 3122 3121 3119 3118 3117 3115 3112 3110 3109 3108 3106 3105 3103 3102 3100 3098 3096 3094 3092 3089 3085 3084 3083 3080 3076 3072 3070 3068 3065 3065 3064 3062 3061 3059 3058 3057 3056 3055 3053 3052 3051 3049 3048 3046 3045 3043
3131 3132 3133 3133 3134 3134 3135 3135 3136 3137 3137 3138 3139 3139 3140 3140 3140 3140 3140 3139 3139 3140 3140 3140 3140 3140 3140 3140 3139 3139 3138 3137 3137 3135 3133 3131 3130 3128 3127 3126 3124 3123 3121 3120 3119 3118 3117 3114 3112 3111 3110 3109 3107 3106 3104 3102 3100 3098 3096 3093 3091 3089 3084 3081 3081 3079 3077 3072 3069 3067 3064 3063 3064 3063 3061 3060 3059 3057 3056 3056 3055 3053 3052 3051 3050 3048 3046 3044
3132 3133 3134 3135 3136 3136 3137 3137 3138 3139 3139 3140 3141 3141 3141 3141 3142 3142 3141 3140 3141 3142 3142 3142 3142 3142 3141 3141 3141 3141 3140 3138 3137 3135 3133 3131 3130 3128 3127 3126 3124 3122 3121 3120 3119 3118 3116 3115 3114 3113 3111 3109 3108 3107 3105 3104 3101 3099 3096 3093 3090 3088 3084 3080 3077 3076 3076 3072 3069 3067 3063 3061 3062 3063 3062 3061 3059 3059 3058 3057 3055 3053 3052 3050 3047 3044 3040 3037
3134 3135 3136 3137 3138 3138 3139 3139 3140 3141 3141 3142 3143 3143 3143 3143 3143 3143 3142 3142 3143 3144 3144 3144 3144 3144 3143 3142 3142 3141 3140 3139 3137 3135 3133 3131 3130 3129 3128 3126 3124 3123 3122 3121 3119 3118 3117 3116 3115 3114 3112 3110 3108 3107 3105 3103 3101 3099 3096 3093 3090 3087 3085 3081 3076 3073 3072 3071 3069 3067 3062 3058 3060 3062 3062 3061 3060 3059 3056 3052 3049 3047 3044 3042 3039 3036 3033 3029
3136 3137 3138 3139 3140 3141 3141 3141 3142 3143 3144 3144 3145 3145 3144 3144 3144 3144 3144 3144 3145 3146 3146 3146 3146 3145 3144 3142 3142 3141 3140 3139 3137 3134 3133 3132 3130 3129 3128 3126 3125 3123 3122 3121 3120 3119 3118 3117 3116 3115 3113 3111 3109 3107 3104 3101 3099 3097 3095 3093 3090 3087 3084 3081 3077 3072 3068 3067 3067 3066 3063 3058 3057 3060 3060 3058 3057 3053 3049 3045 3043 3041 3038 3036 3033 3030 3027 3024
3139 3140 3141 3141 3142 3143 3143 3144 3144 3145 3146 3146 3146 3146 3145 3145 3145 3145 3146 3145 3147 3147 3147 3147 3146 3146 3144 3143 3142 3141 3140 3139 3137 3135 3134 3132 3131 3130 3129 3128 3126 3124 3123 3122 3121 3120 3119 3118 3116 3115 3114 3111 3109 3106 3103 3100 3098 3096 3094 3092 3090 3087 3083 3080 3077 3073 3069 3067 3066 3066 3065 3059 3055 3058 3058 3055 3052 3047 3044 3042 3040 3038 3035 3032 3029 3026 3024 3022
3141 3142 3143 3144 3144 3145 3145 3146 3146 3147 3147 3147 3147 3147 3147 3147 3146 3146 3146 3146 3149 3149 3148 3148 3147 3147 3145 3143 3143 3141 3141 3140 3139 3137 3135 3133 3132 3131 3130 3129 3127 3125 3124 3123 3122 3121 3120 3118 3117 3115 3114 3111 3108 3105 3103 3101 3098 3096 3094 3091 3088 3085 3082 3079 3076 3073 3070 3067 3066 3064 3064 3060 3055 3056 3056 3052 3047 3042 3039 3038 3037 3036 3033 3030 3028 3026 3024 3022
3143 3144 3144 3145 3146 3146 3147 3147 3147 3148 3148 3148 3148 3148 3148 3147 3147 3147 3146 3149 3153 3152 3150 3150 3148 3147 3146 3145 3144 3143 3142 3142 3140 3138 3136 3135 3134 3133 3131 3129 3128 3126 3125 3124 3123 3122 3120 3118 3117 3115 3113 3111 3108 3106 3103 3101 3098 3096 3093 3090 3087 3083 3080 3077 3074 3071 3069 3066 3064 3062 3062 3060 3055 3055 3053 3047 3042 3038 3036 3035 3034 3034 3031 3028 3026 3025 3023 3021
3145 3145 3146 3146 3147 3147 3147 3148 3148 3148 3148 3149 3148 3148 3149 3148 3148 3147 3146 3151 3156 3154 3152 3152 3150 3149 3148 3147 3146 3145 3144 3143 3141 3139 3138 3137 3136 3134 3132 3130 3129 3127 3126 3125 3123 3121 3120 3119 3116 3114 3112 3111 3109 3108 3105 3102 3099 3096 3093 3090 3087 3083 3079 3076 3072 3070 3067 3065 3063 3061 3061 3060 3055 3051 3048 3043 3039 3037 3035 3034 3033 3032 3030 3027 3025 3022 3020 3019
3146 3147 3147 3147 3147 3148 3148 3148 3148 3149 3149 3149 3149 3149 3149 3149 3149 3148 3148 3154 3157 3156 3155 3153 3152 3151 3150 3149 3148 3146 3145 3144 3143 3142 3140 3139 3137 3136 3133 3132 3131 3130 3128 3127 3125 3122 3120 3119 3117 3114 3113 3111 3110 3108 3106 3103 3100 3096 3092 3088 3084 3081 3077 3073 3071 3069 3066 3063 3061 3060 3059 3059 3056 3050 3045 3042 3041 3039 3036 3034 3031 3028 3027 3025 3022 3020 3018 3015
3148 3148 3148 3148 3148 3148 3149 3149 3149 3149 3149 3149 3150 3150 3150 3150 3149 3149 3153 3157 3157 3156 3156 3155 3153 3152 3151 3150 3148 3147 3146 3145 3144 3143 3141 3139 3137 3135 3132 3130 3129 3128 3127 3126 3124 3123 3120 3119 3117 3115 3113 3111 3109 3107 3106 3104 3100 3096 3093 3088 3081 3076 3072 3070 3069 3069 3067 3063 3060 3059 3058 3057 3054 3048 3044 3044 3043 3040 3037 3032 3028 3025 3023 3021 3019 3018 3016 3013
3149 3149 3149 3149 3149 3149 3149 3149 3150 3150 3150 3151 3151 3151 3151 3150 3150 3152 3156 3158 3157 3158 3157 3156 3155 3153 3152 3151 3149 3148 3147 3145 3144 3142 3139 3137 3135 3132 3130 3129 3127 3124 3122 3122 3123 3123 3121 3120 3119 3116 3114 3111 3107 3104 3102 3101 3099 3096 3092 3088 3083 3078 3074 3071 3069 3068 3066 3062 3060 3059 3056 3053 3050 3045 3043 3043 3040 3038 3036 3032 3028 3024 3021 3018 3016 3015 3013 3010
3150 3150 3151 3150 3150 3150 3150 3150 3151 3151 3152 3152 3152 3153 3151 3150 3153 3156 3157 3157 3159 3159 3158 3156 3156 3154 3153 3151 3150 3149 3148 3146 3145 3143 3141 3139 3137 3134 3133 3132 3130 3128 3126 3124 3122 3121 3119 3118 3117 3116 3114 3112 3108 3103 3099 3096 3095 3094 3091 3088 3086 3085 3083 3079 3074 3070 3065 3057 3056 3057 3055 3050 3046 3043 3041 3040 3037 3035 3033 3030 3027 3024 3020 3017 3014 3013 3010 3007
3152 3152 3152 3152 3152 3152 3152 3152 3152 3153 3154 3154 3154 3155 3152 3152 3156 3159 3158 3159 3160 3159 3158 3158 3157 3155 3154 3152 3151 3150 3149 3147 3146 3144 3143 3141 3138 3136 3135 3134 3132 3131 3128 3125 3123 3122 3120 3118 3116 3115 3113 3111 3109 3106 3102 3098 3095 3094 3092 3090 3089 3089 3090 3085 3078 3073 3067 3059 3053 3053 3052 3046 3042 3040 3038 3036 3034 3032 3030 3028 3025 3022 3019 3016 3013 3009 3006 3002
3154 3153 3154 3154 3154 3154 3155 3155 3155 3155 3155 3155 3156 3155 3153 3154 3159 3160 3160 3160 3160 3160 3159 3159 3158 3157 3156 3154 3153 3152 3150 3148 3147 3145 3143 3141 3138 3136 3135 3133 3132 3130 3127 3125 3123 3123 3122 3121 3118 3116 3114 3112 3109 3106 3104 3100 3096 3094 3093 3091 3089 3088 3087 3084 3077 3072 3069 3064 3055 3050 3048 3044 3041 3038 3034 3033 3031 3029 3027 3024 3021 3018 3015 3012 3007 3003 3000 2998
3156 3155 3156 3156 3156 3156 3157 3157 3157 3157 3156 3157 3157 3156 3155 3157 3160 3160 3161 3162 3161 3161 3160 3159 3159 3158 3157 3156 3155 3153 3152 3150 3148 3146 3143 3141 3139 3137 3135 3133 3132 3130 3127 3125 3123 3122 3121 3119 3118 3116 3114 3111 3108 3106 3104 3100 3097 3094 3092 3090 3087 3086 3083 3079 3073 3069 3068 3066 3056 3047 3045 3042 3040 3035 3031 3030 3027 3024 3022 3019 3016 3013 3010 3006 3002 2998 2996 2995
3158 3157 3157 3157 3158 3158 3158 3159 3159 3158 3158 3158 3158 3157 3158 3160 3161 3162 3163 3163 3162 3162 3161 3160 3160 3159 3158 3157 3156 3154 3153 3151 3148 3146 3143 3141 3139 3138 3136 3134 3132 3130 3128 3126 3124 3123 3120 3115 3114 3114 3112 3110 3107 3104 3103 3101 3098 3094 3091 3089 3086 3083 3080 3077 3072 3067 3067 3063 3052 3046 3044 3040 3036 3031 3027 3025 3023 3019 3017 3014 3012 3009 3005 3002 2999 2996 2995 2993
3160 3160 3160 3160 3160 3160 3160 3160 3160 3160 3160 3160 3159 3159 3161 3162 3163 3164 3164 3164 3164 3163 3162 3161 3161 3161 3160 3158 3156 3155 3153 3150 3148 3146 3144 3142 3140 3139 3137 3135 3133 3131 3129 3127 3124 3123 3119 3112 3109 3110 3110 3108 3106 3102 3098 3097 3096 3093 3091 3089 3086 3082 3078 3076 3072 3067 3066 3060 3048 3044 3043 3037 3032 3028 3024 3022 3019 3016 3014 3012 3009 3005 3001 2998 2996 2994 2993 2990
3163 3163 3162 3162 3162 3162 3162 3162 3162 3162 3161 3160 3160 3161 3163 3164 3165 3165 3165 3165 3165 3164 3163 3163 3162 3162 3160 3159 3157 3155 3153 3150 3148 3146 3144 3143 3141 3140 3138 3136 3134 3132 3129 3127 3125 3122 3120 3114 3107 3107 3108 3105 3103 3100 3095 3093 3092 3091 3089 3087 3085 3083 3079 3075 3070 3067 3064 3057 3047 3043 3040 3034 3030 3027 3025 3022 3020 3017 3013 3010 3007 3003 3000 2997 2993 2990 2988 2986
3167 3166 3164 3164 3165 3164 3163 3163 3165 3165 3162 3160 3161 3163 3165 3166 3166 3167 3167 3166 3166 3165 3165 3164 3163 3162 3161 3159 3157 3155 3153 3151 3149 3148 3146 3144 3142 3140 3138 3136 3134 3132 3130 3128 3125 3121 3120 3117 3108 3103 3103 3102 3100 3099 3096 3093 3090 3089 3087 3084 3082 3080 3078 3074 3068 3065 3063 3056 3048 3044 3037 3032 3030 3027 3025 3022 3020 3018 3014 3009 3006 3003 2999 2996 2992 2988 2985 2982
3170 3167 3166 3166 3166 3165 3165 3166 3167 3165 3163 3163 3164 3165 3167 3168 3168 3168 3168 3167 3167 3166 3166 3165 3164 3163 3161 3159 3158 3156 3154 3153 3151 3149 3147 3145 3143 3140 3138 3136 3133 3132 3129 3127 3125 3122 3118 3116 3110 3102 3099 3099 3099 3098 3096 3093 3091 3089 3086 3083 3080 3077 3076 3072 3066 3063 3063 3057 3051 3046 3035 3029 3029 3028 3024 3022 3019 3016 3013 3009 3005 3001 2998 2995 2991 2987 2983 2978
3171 3168 3168 3168 3167 3167 3167 3168 3168 3167 3166 3166 3167 3168 3169 3169 3169 3170 3169 3168 3168 3167 3166 3165 3164 3163 3161 3160 3158 3157 3155 3153 3151 3150 3148 3146 3144 3141 3139 3136 3133 3131 3129 3126 3124 3121 3118 3114 3110 3104 3099 3098 3097 3095 3093 3091 3089 3088 3085 3081 3078 3076 3074 3073 3067 3062 3061 3056 3052 3048 3037 3029 3029 3027 3024 3021 3018 3015 3013 3008 3003 2999 2996 2992 2988 2983 2979 2975
3172 3170 3170 3170 3169 3169 3170 3170 3169 3169 3169 3169 3169 3170 3170 3171 3171 3171 3170 3169 3169 3168 3167 3166 3164 3163 3161 3160 3158 3157 3155 3154 3152 3150 3149 3146 3144 3142 3138 3136 3133 3130 3128 3125 3122 3120 3117 3114 3110 3104 3097 3093 3092 3091 3089 3088 3086 3085 3082 3078 3075 3074 3072 3072 3068 3064 3059 3054 3051 3049 3040 3031 3030 3029 3025 3021 3017 3014 3011 3007 3002 2997 2993 2988 2983 2979 2975 2971
3174 3172 3172 3172 3171 3171 3172 3171 3172 3172 3171 3171 3172 3172 3172 3172 3172 3172 3171 3170 3169 3168 3167 3166 3165 3163 3162 3160 3159 3157 3155 3153 3152 3150 3148 3145 3143 3141 3138 3135 3132 3129 3126 3123 3120 3118 3116 3114 3111 3106 3099 3092 3087 3085 3083 3081 3081 3083 3080 3075 3073 3071 3068 3065 3063 3062 3059 3055 3053 3050 3040 3032 3032 3030 3025 3019 3014 3010 3006 3003 3000 2994 2987 2982 2977 2973 2969 2965
3175 3174 3174 3174 3174 3174 3173 3173 3174 3173 3172 3173 3174 3174 3173 3173 3173 3173 3172 3171 3170 3169 3168 3166 3165 3164 3163 3161 3159 3158 3156 3154 3152 3149 3147 3145 3142 3140 3137 3134 3131 3129 3126 3122 3120 3117 3114 3112 3111 3110 3108 3103 3097 3092 3088 3083 3080 3080 3078 3074 3071 3067 3064 3062 3060 3059 3058 3055 3052 3049 3039 3030 3028 3026 3020 3014 3009 3004 3001 2998 2994 2988 2982 2977 2972 2967 2964 2960
3177 3176 3176 3176 3177 3177 3175 3175 3176 3175 3175 3175 3175 3175 3175 3174 3174 3173 3172 3171 3170 3169 3168 3167 3166 3165 3163 3162 3160 3159 3156 3154 3151 3149 3146 3144 3141 3138 3136 3133 3131 3128 3125 3122 3119 3115 3112 3110 3109 3109 3109 3107 3103 3098 3094 3088 3083 3079 3075 3072 3069 3066 3063 3062 3060 3060 3059 3053 3049 3046 3039 3027 3021 3019 3014 3009 3005 3001 2997 2993 2988 2982 2977 2972 2967 2964 2960 2957
3179 3178 3178 3178 3178 3178 3177 3177 3178 3178 3177 3177 3176 3176 3176 3175 3175 3174 3173 3172 3171 3170 3169 3168 3167 3165 3163 3162 3160 3158 3156 3154 3151 3148 3145 3142 3140 3138 3135 3133 3130 3128 3125 3121 3118 3115 3111 3107 3106 3105 3103 3102 3099 3095 3092 3088 3082 3078 3074 3070 3067 3065 3062 3061 3060 3060 3058 3051 3044 3039 3035 3026 3019 3016 3011 3006 3003 2999 2994 2990 2984 2979 2974 2969 2965 2960 2956 2952
3181 3180 3180 3180 3179 3180 3180 3180 3180 3180 3179 3179 3178 3177 3177 3176 3176 3175 3174 3173 3172 3171 3169 3168 3167 3165 3163 3160 3158 3155 3153 3150 3148 3146 3143 3141 3138 3136 3134 3132 3129 3126 3124 3121 3118 3115 3111 3107 3105 3101 3097 3096 3095 3092 3089 3085 3080 3076 3073 3069 3066 3063 3061 3059 3059 3058 3054 3049 3041 3033 3029 3024 3019 3014 3010 3005 3002 2997 2992 2987 2982 2976 2971 2967 2962 2957 2952 2947
3183 3182 3182 3182 3182 3182 3182 3181 3181 3182 3181 3180 3179 3178 3178 3177 3177 3176 3175 3174 3172 3171 3170 3168 3166 3164 3162 3160 3157 3154 3151 3147 3145 3143 3141 3139 3136 3134 3132 3130 3128 3126 3124 3122 3118 3115 3111 3107 3104 3099 3092 3090 3090 3089 3086 3083 3078 3074 3071 3068 3065 3063 3060 3058 3057 3054 3050 3045 3038 3031 3026 3022 3019 3015 3009 3005 3001 2996 2989 2983 2977 2972 2967 2963 2958 2953 2948 2943
3185 3184 3184 3184 3183 3184 3184 3183 3183 3183 3182 3181 3180 3180 3179 3179 3178 3177 3176 3174 3173 3172 3170 3168 3166 3164 3162 3160 3157 3155 3152 3149 3146 3143 3140 3138 3136 3133 3130 3128 3127 3126 3124 3122 3119 3116 3112 3107 3104 3098 3089 3084 3086 3086 3083 3079 3074 3070 3068 3067 3064 3061 3057 3055 3052 3049 3045 3040 3034 3029 3023 3017 3015 3013 3006 3001 2997 2991 2984 2977 2971 2965 2960 2956 2953 2948 2944 2939
3187 3186 3186 3186 3185 3185 3185 3184 3184 3184 3184 3183 3182 3181 3180 3179 3178 3177 3176 3175 3173 3172 3170 3168 3166 3164 3162 3160 3157 3155 3152 3150 3147 3144 3141 3138 3135 3133 3131 3128 3126 3124 3122 3121 3118 3116 3112 3107 3102 3098 3088 3081 3082 3082 3079 3076 3071 3067 3067 3065 3061 3058 3053 3050 3048 3046 3043 3036 3029 3024 3018 3012 3010 3007 3001 2996 2992 2986 2978 2972 2966 2961 2955 2950 2947 2944 2939 2936
3188 3188 3188 3187 3187 3187 3187 3186 3186 3185 3185 3184 3183 3182 3181 3180 3179 3178 3176 3175 3173 3171 3169 3167 3165 3163 3161 3159 3156 3154 3152 3149 3147 3144 3142 3139 3136 3134 3131 3129 3126 3123 3121 3119 3116 3114 3111 3106 3101 3098 3089 3081 3081 3079 3075 3073 3069 3066 3066 3063 3058 3055 3051 3047 3045 3044 3042 3037 3028 3020 3014 3010 3006 3001 2995 2989 2984 2979 2973 2967 2964 2959 2952 2946 2944 2941 2936 2931